Vorticity
nan nan nan nan nan nan nan nan nan nan nan nan nan nan nan nan nan nan nan nan nan nan nan nan nan nan nan nan nan nan nan nan nan nan nan nan nan nan nan nan nan nan nan
nan 6 5 6 5 5 6 6 6 5 7 8 8 7 7 6 6 6 5 5 6 6 4 4 6 8 9 6 6 7 7 9 7 5 4 2 2 3 4 7 6 6 nan
nan 6 4 4 5 4 4 5 5 6 6 6 6 7 7 6 6 5 5 6 7 6 4 4 5 8 8 6 6 7 9 10 9 7 0 2 6 10 6 5 7 7 nan
nan 6 5 5 5 5 6 5 5 5 5 6 6 6 6 6 6 5 5 6 6 6 7 5 5 7 6 5 6 7 7 6 5 3 5 8 8 8 7 6 6 5 nan
nan 5 7 7 5 5 4 4 6 6 5 5 6 6 6 7 7 6 5 6 7 7 7 7 6 5 7 8 7 6 5 5 6 7 8 8 8 7 6 4 5 6 nan
nan 5 5 6 6 6 5 5 5 5 5 5 5 6 7 7 6 7 7 6 7 6 6 6 6 6 7 6 6 7 7 4 6 7 5 7 10 8 5 4 6 6 nan
nan 7 5 5 7 7 5 5 4 5 6 6 6 6 6 6 6 6 7 7 6 6 7 8 7 6 7 7 7 5 3 6 8 5 5 5 10 8 5 4 4 6 nan
nan 8 7 4 6 7 6 5 5 6 6 6 6 6 6 5 6 6 6 7 7 6 7 8 7 6 6 6 5 6 8 7 6 6 5 8 8 8 5 3 4 6 nan
nan 11 8 8 4 4 7 7 7 7 7 6 6 6 6 5 5 6 7 6 7 8 9 7 7 7 5 6 4 4 7 8 7 6 5 8 8 7 5 5 5 4 nan
nan 9 9 8 8 7 5 4 8 7 7 7 7 6 6 4 5 5 6 7 7 8 8 7 6 6 7 7 6 5 6 7 7 5 4 10 11 7 4 5 4 5 nan
nan 6 8 8 7 6 8 6 6 7 7 6 6 6 4 5 7 3 4 7 7 8 9 8 6 6 5 4 4 6 2 4 6 5 9 11 10 6 5 4 4 5 nan
nan 4 6 7 6 7 7 10 9 8 8 7 6 4 3 7 7 6 6 6 5 6 9 8 5 5 4 4 4 3 4 8 6 6 11 10 8 6 5 4 5 5 nan
nan 7 7 5 6 7 8 8 7 7 9 11 9 5 5 5 6 7 7 7 6 6 8 7 5 5 5 6 6 6 7 6 6 8 10 9 8 6 5 5 5 4 nan
nan 5 7 6 4 4 7 9 8 6 6 9 11 7 4 6 7 6 7 8 7 7 8 5 7 8 7 7 6 7 6 6 7 9 8 8 9 8 6 5 5 6 nan
nan 10 8 6 5 5 4 7 8 7 6 6 10 8 5 7 7 7 7 7 7 7 7 8 8 9 6 6 7 6 8 8 5 6 10 7 8 9 7 6 5 6 nan
nan 15 10 7 7 5 4 5 7 8 7 5 6 10 7 6 8 7 6 7 7 6 8 8 7 8 9 7 7 7 7 8 7 4 9 12 9 9 9 7 6 5 nan
nan 14 14 11 8 7 6 2 6 9 8 8 7 9 9 6 7 7 7 7 7 8 7 6 8 7 8 9 8 7 7 6 7 8 6 9 10 10 12 9 7 8 nan
nan 10 14 13 9 7 5 6 6 7 8 8 9 8 11 8 6 6 7 8 7 7 6 6 6 7 8 8 8 8 9 8 7 6 6 6 8 10 11 10 8 9 nan
nan 8 10 14 12 8 7 7 8 7 6 7 9 10 9 9 6 5 6 9 8 7 8 6 7 8 6 8 8 8 8 9 9 7 6 7 6 8 11 9 8 10 nan
nan 9 8 14 14 11 8 7 8 8 8 7 8 11 7 9 9 4 7 8 6 6 7 9 8 7 8 7 9 9 9 8 10 10 5 4 8 7 11 10 10 9 nan
nan 9 10 10 12 10 9 7 7 8 6 6 10 11 8 7 9 6 7 8 7 7 8 6 8 7 8 7 5 6 9 11 9 8 7 6 7 7 7 10 9 8 nan
nan 9 10 7 12 8 5 8 8 9 9 9 9 10 10 8 7 7 6 7 7 7 10 9 5 2 9 8 4 6 6 7 11 10 8 8 7 8 8 11 8 6 nan
nan 10 6 8 12 12 6 5 9 6 9 11 8 10 12 10 7 9 7 6 7 7 9 11 9 4 3 9 5 2 8 10 9 11 10 9 7 6 8 10 11 8 nan
nan 12 9 10 11 13 11 7 7 4 4 9 9 7 11 11 8 9 9 7 5 7 9 9 10 8 5 6 5 4 6 11 9 8 12 13 10 8 8 8 10 11 nan
nan 12 10 11 12 14 12 6 6 4 3 8 12 12 9 10 11 8 10 8 5 6 9 8 9 8 7 7 7 7 4 3 6 8 11 10 10 10 9 9 8 10 nan
nan nan nan nan nan nan nan nan nan nan nan nan nan nan nan nan nan nan nan nan nan nan nan nan nan nan nan nan nan nan nan nan nan nan nan nan nan nan nan nan nan nan nan
CAPE
638 1226 1092 1390 1327 1193 1058 991 974 1231 1699 1911 1826 1675 1675 1836 1829 1903 2041 2126 2179 2066 1952 1862 2081 1798 1860 2110 1972 1692 1511 1443 1191 1047 811 754 590 813 1123 1420 1182 901 1357
889 1360 1114 1355 1335 1213 1142 1073 1079 1309 1810 2006 1966 1891 1857 1872 1905 2008 2119 2171 2269 2182 1877 1678 1825 1847 2273 2061 1636 1580 1356 1239 1028 938 740 753 599 569 926 1047 1149 965 1283
1316 1437 1427 1327 1360 1316 1326 1296 1408 1668 1920 1987 1992 1979 1937 1957 1994 2042 2061 2159 2181 2176 2059 1811 1765 1683 2125 1703 1639 1537 1409 1256 919 743 756 667 691 829 896 755 967 1374 1333
1448 1487 1588 1276 1364 1422 1403 1404 1544 1825 1932 1907 1951 1973 1969 1981 2024 2079 2066 1987 2085 2089 2143 1699 1570 1616 1667 1565 1396 1283 1209 1077 943 937 868 780 715 1118 980 1064 1098 1260 1148
1470 1528 1627 1296 1337 1473 1479 1495 1613 1722 1708 1789 1807 1974 1998 2000 2045 1992 1916 1871 2097 2118 2022 1642 1909 1737 1430 1263 1126 1058 1062 996 787 806 894 868 906 1115 1075 1086 1228 1103 951
1523 1552 1292 1209 1338 1495 1602 1637 1693 1615 1529 1626 1725 1977 2139 2096 1939 1766 1600 1808 2027 2068 1983 1949 2010 1458 1182 1125 1071 939 828 641 721 1056 948 1004 1015 1125 1079 1089 1000 930 842
1475 1581 1657 1214 1390 1552 1770 1793 1711 1525 1431 1554 1742 1861 1897 1819 1471 1300 1321 1567 1779 1894 1974 1884 1482 1145 1014 949 813 618 523 533 1033 1028 823 883 1161 1097 962 900 985 872 826
1443 1459 1680 1221 1386 1572 1759 1786 1666 1447 1370 1465 1635 1658 1620 1358 1022 995 1161 1341 1258 1290 1324 1336 1095 954 837 700 538 420 327 610 941 970 761 1069 974 1020 886 787 797 592 479
1177 1277 1456 1704 1632 1414 1637 1732 1533 1357 1323 1346 1402 1417 1221 900 619 786 1019 1141 1060 1076 1082 1065 830 781 720 584 423 319 283 584 1038 927 1070 1222 893 1006 839 634 464 495 371
1097 1161 1238 1539 1709 1863 2050 1526 1274 1223 1249 1195 1176 1147 911 688 448 453 637 712 813 794 898 769 637 587 507 363 239 160 186 370 929 1074 1148 1340 965 1009 793 507 347 412 258
1005 1115 1215 1413 1359 1190 1523 1778 1162 1068 1120 1048 1042 836 734 1173 875 520 274 286 510 533 619 529 395 351 271 155 119 122 285 979 1029 1025 835 516 984 937 765 532 350 281 203
836 1040 1131 1145 1089 966 1072 1373 1837 1706 1840 1812 1551 1454 1334 1147 930 515 146 110 354 299 284 382 134 36 273 932 538 239 1114 1011 824 817 927 443 1000 911 783 573 452 268 142
762 830 859 872 877 987 988 1124 1340 1441 1479 1352 1638 1433 1156 894 650 300 349 251 745 474 843 534 360 738 845 709 1079 979 915 904 862 768 588 408 727 1018 794 632 446 228 156
1195 1060 976 869 850 1007 957 999 1123 1129 1190 1161 1063 1355 1018 792 703 329 187 342 437 760 597 801 710 748 769 875 1003 849 595 632 882 771 704 320 544 857 772 593 377 290 157
1099 1462 1148 1067 1003 930 1047 998 1142 1031 1231 1091 983 938 1030 745 573 297 157 256 254 527 307 461 380 862 757 585 798 355 448 870 826 713 1001 221 302 375 738 497 406 261 143
0 1186 1704 1282 1404 1204 1233 1076 1230 1623 1817 1194 1086 638 891 680 403 321 177 152 257 429 596 327 302 163 716 646 756 817 831 745 508 152 210 530 104 204 285 624 420 285 165
0 0 1366 1676 1629 1520 1487 1272 1256 1433 1285 1109 1027 761 584 609 330 285 257 97 175 274 540 94 65 17 363 151 478 527 288 156 116 114 36 21 13 37 123 166 263 349 193
0 0 0 1176 1556 1570 1385 1617 1597 1482 1286 1061 828 852 508 595 277 247 261 158 274 181 78 3 4 2 26 44 87 175 230 96 152 93 54 26 12 137 58 89 177 253 190
0 0 0 59 1808 1816 1772 1638 1744 1637 1422 1034 875 829 675 597 311 335 300 231 30 47 5 1 4 99 7 20 33 38 48 72 98 145 19 6 1 14 244 65 96 103 107
0 0 0 0 1072 2048 1863 1606 1477 1423 1333 1225 1018 767 601 561 475 380 438 143 31 6 6 3 193 218 285 213 109 19 14 4 51 332 160 2 1 6 17 191 215 102 46
0 0 0 0 170 1902 1882 1410 1209 1177 1295 1295 1049 956 689 583 483 462 427 184 40 2 0 87 231 197 19 67 5 7 8 26 70 179 109 61 4 6 3 19 134 33 25
0 0 0 0 0 1580 1800 1829 1721 1634 1371 1328 1223 868 772 636 532 475 640 394 100 119 72 67 178 73 41 5 30 9 10 7 8 37 93 45 10 3 3 16 92 1 2
0 0 0 0 0 1222 1873 1923 1990 1829 1786 1469 1145 898 895 816 656 487 493 344 239 235 72 66 351 244 88 2 52 0 15 11 12 14 13 13 30 7 6 0 30 2 1
0 0 0 0 0 711 2303 2263 1982 1856 1819 1613 1421 1324 1122 876 753 589 417 542 369 264 139 40 264 329 211 26 55 24 0 0 9 6 13 13 7 36 4 8 0 0 0
0 0 0 0 0 26 2265 2572 2382 2467 2389 2279 1782 1566 1172 851 782 581 473 466 521 360 310 90 59 272 295 199 56 59 8 0 0 0 2 9 17 9 3 2 2 0 0
0 0 0 0 0 0 2117 2731 2725 2669 2527 2409 2016 1716 1200 966 807 568 498 477 630 475 378 221 134 187 415 361 219 170 121 27 2 1 1 7 3 10 15 6 3 0 0